Weather History for KFSW - August, 2012

Change the Weather History Date:

Thursday, August 30, 2012

  Actual Average Record
Temperature  
Mean Temperature 84 °F -  
Max Temperature 98 °F 83 °F 98 °F (2012)
Min Temperature 71 °F 62 °F 53 °F (2008)
Cooling Degree Days 20    
Growing Degree Days 34 (Base 50)    
Moisture  
Dew Point 65 °F    
Average Humidity 55    
Maximum Humidity 88    
Minimum Humidity 29    
Precipitation  
Precipitation 0.00 in - - ()
Sea Level Pressure  
Sea Level Pressure 29.99 in    
Wind  
Wind Speed 7 mph (South)    
Max Wind Speed 9 mph    
Max Gust Speed -    
Visibility 10 miles    
Events      
Averages and records for this station are not official NWS values.
T = Trace of Precipitation, MM = Missing Value Source: NWS Daily Summary

Daily Weather History Graph

Daily Weather History Graph

Search for Another Location

Airport or City:

Trip Planner

Search our weather history database for the weather conditions in past years. The results will help you decide how hot, cold, wet, or windy it might be!

Date:

Astronomy

Aug. 30, 2012 Rise Set
Actual Time 6:30 AM CDT 7:39 PM CDT
Civil Twilight 6:02 AM CDT 8:07 PM CDT
Nautical Twilight 5:29 AM CDT 8:41 PM CDT
Astronomical Twilight 4:53 AM CDT 9:16 PM CDT
Moon 6:54 PM CDT (8/30) 5:32 AM CDT (8/30)
Length of Visible Light 14h 05m
Length of Day
13h 08m
Waxing Gibbous, 99% of the Moon is Illuminated
Aug 30
Waxing Gibbous
Aug 31
Full
Sep 8
Last Quarter
Sep 15
New
Sep 22
First Quarter

Hourly Weather History & Observations

Time (CDT) Temp. Heat Index Dew Point Humidity Pressure Visibility Wind Dir Wind Speed Gust Speed Precip Events Conditions
12:15 AM 78.8 °F - 64.4 °F 61% 29.99 in 10.0 mi SSE 6.9 mph - N/A   Clear
12:35 AM 78.8 °F - 66.2 °F 65% 29.99 in 10.0 mi South 6.9 mph - N/A   Clear
12:55 AM 78.8 °F - 66.2 °F 65% 29.98 in 10.0 mi South 9.2 mph - N/A   Clear
1:15 AM 78.8 °F - 66.2 °F 65% 29.98 in 10.0 mi South 8.1 mph - N/A   Clear
1:35 AM 78.8 °F - 66.2 °F 65% 29.98 in 10.0 mi South 8.1 mph - N/A   Clear
1:55 AM 77.0 °F - 66.2 °F 69% 29.98 in 10.0 mi South 5.8 mph - N/A   Clear
2:15 AM 75.2 °F - 66.2 °F 73% 29.98 in 10.0 mi South 6.9 mph - N/A   Clear
2:35 AM 75.2 °F - 66.2 °F 73% 29.98 in 10.0 mi South 6.9 mph - N/A   Clear
2:55 AM 75.2 °F - 66.2 °F 73% 29.98 in 10.0 mi South 6.9 mph - N/A   Clear
3:15 AM 73.4 °F - 66.2 °F 78% 29.98 in 10.0 mi South 6.9 mph - N/A   Clear
3:35 AM 73.4 °F - 66.2 °F 78% 29.98 in 10.0 mi SSE 5.8 mph - N/A   Clear
3:55 AM 75.2 °F - 66.2 °F 73% 29.98 in 10.0 mi South 5.8 mph - N/A   Clear
4:15 AM 73.4 °F - 66.2 °F 78% 29.98 in 10.0 mi South 4.6 mph - N/A   Clear
4:35 AM 73.4 °F - 68.0 °F 83% 29.99 in 10.0 mi South 3.5 mph - N/A   Clear
4:55 AM 73.4 °F - 68.0 °F 83% 29.99 in 10.0 mi South 5.8 mph - N/A   Clear
5:15 AM 73.4 °F - 68.0 °F 83% 29.99 in 10.0 mi South 5.8 mph - N/A   Clear
5:35 AM 71.6 °F - 68.0 °F 88% 30.00 in 10.0 mi South 6.9 mph - N/A   Clear
5:55 AM 71.6 °F - 68.0 °F 88% 30.00 in 10.0 mi SSE 6.9 mph - N/A   Clear
6:15 AM 71.6 °F - 68.0 °F 88% 30.01 in 10.0 mi South 5.8 mph - N/A   Clear
6:35 AM 71.6 °F - 68.0 °F 88% 30.01 in 10.0 mi South 6.9 mph - N/A   Clear
6:55 AM 73.4 °F - 68.0 °F 83% 30.01 in 10.0 mi South 6.9 mph - N/A   Clear
7:15 AM 73.4 °F - 68.0 °F 83% 30.02 in 10.0 mi South 4.6 mph - N/A   Clear
7:35 AM 73.4 °F - 68.0 °F 83% 30.02 in 10.0 mi South 5.8 mph - N/A   Clear
7:55 AM 75.2 °F - 68.0 °F 78% 30.02 in 10.0 mi South 5.8 mph - N/A   Clear
8:15 AM 75.2 °F - 68.0 °F 78% 30.03 in 10.0 mi South 4.6 mph - N/A   Clear
8:35 AM 78.8 °F - 69.8 °F 74% 30.03 in 10.0 mi South 4.6 mph - N/A   Clear
8:55 AM 78.8 °F - 68.0 °F 69% 30.04 in 10.0 mi South 8.1 mph - N/A   Clear
9:15 AM 80.6 °F 83.2 °F 68.0 °F 65% 30.03 in 10.0 mi SSW 8.1 mph - N/A   Clear
9:35 AM 82.4 °F 86.3 °F 69.8 °F 66% 30.04 in 10.0 mi SSW 6.9 mph - N/A   Clear
9:55 AM 84.2 °F 87.3 °F 68.0 °F 58% 30.04 in 10.0 mi SSW 9.2 mph - N/A   Clear
10:15 AM 84.2 °F 87.3 °F 68.0 °F 58% 30.04 in 10.0 mi South 9.2 mph - N/A   Clear
10:35 AM 86.0 °F 88.2 °F 66.2 °F 51% 30.04 in 10.0 mi SSW 6.9 mph - N/A   Clear
10:55 AM 89.6 °F 93.4 °F 68.0 °F 49% 30.04 in 10.0 mi SSW 6.9 mph - N/A   Clear
11:15 AM 89.6 °F 92.2 °F 66.2 °F 46% 30.03 in 10.0 mi SSW 6.9 mph - N/A   Clear
11:35 AM 89.6 °F 92.2 °F 66.2 °F 46% 30.02 in 10.0 mi South 5.8 mph - N/A   Clear
11:55 AM 91.4 °F 94.0 °F 66.2 °F 43% 30.02 in 10.0 mi South 6.9 mph - N/A   Clear
12:15 PM 91.4 °F 94.0 °F 66.2 °F 43% 30.01 in 10.0 mi South 6.9 mph - N/A   Clear
12:35 PM 91.4 °F 94.0 °F 66.2 °F 43% 30.01 in 10.0 mi SW 6.9 mph - N/A   Clear
12:55 PM 93.2 °F 94.9 °F 64.4 °F 38% 30.01 in 10.0 mi South 5.8 mph - N/A   Clear
1:15 PM 93.2 °F 94.9 °F 64.4 °F 38% 30.00 in 10.0 mi SSW 8.1 mph - N/A   Clear
1:35 PM 95.0 °F 96.0 °F 62.6 °F 34% 30.00 in 10.0 mi SSW 5.8 mph - N/A   Clear
1:55 PM 95.0 °F 96.0 °F 62.6 °F 34% 29.99 in 10.0 mi Calm Calm - N/A   Clear
2:15 PM 96.8 °F 98.0 °F 62.6 °F 32% 29.99 in 10.0 mi SW 6.9 mph - N/A   Clear
2:35 PM 96.8 °F 98.0 °F 62.6 °F 32% 29.97 in 10.0 mi South 4.6 mph - N/A   Clear
2:55 PM 96.8 °F 98.0 °F 62.6 °F 32% 29.97 in 10.0 mi South 6.9 mph - N/A   Clear
3:15 PM 98.6 °F 100.0 °F 62.6 °F 30% 29.96 in 10.0 mi SSW 9.2 mph - N/A   Clear
3:35 PM 98.6 °F 100.0 °F 62.6 °F 30% 29.95 in 10.0 mi South 6.9 mph - N/A   Clear
3:55 PM 98.6 °F 99.4 °F 60.8 °F 29% 29.95 in 10.0 mi SSW 8.1 mph - N/A   Clear
4:15 PM 98.6 °F 99.4 °F 60.8 °F 29% 29.95 in 10.0 mi SSW 3.5 mph - N/A   Clear
4:35 PM 98.6 °F 99.4 °F 60.8 °F 29% 29.94 in 10.0 mi South 4.6 mph - N/A   Clear
4:55 PM 98.6 °F 99.4 °F 60.8 °F 29% 29.94 in 10.0 mi SW 4.6 mph - N/A   Clear
5:15 PM 98.6 °F 99.4 °F 60.8 °F 29% 29.94 in 10.0 mi South 5.8 mph - N/A   Clear
5:35 PM 98.6 °F 99.4 °F 60.8 °F 29% 29.94 in 10.0 mi South 3.5 mph - N/A   Clear
5:55 PM 96.8 °F 97.1 °F 60.8 °F 30% 29.94 in 10.0 mi South 5.8 mph - N/A   Clear
6:15 PM 96.8 °F 98.0 °F 62.6 °F 32% 29.94 in 10.0 mi South 5.8 mph - N/A   Clear
6:35 PM 95.0 °F 96.0 °F 62.6 °F 34% 29.94 in 10.0 mi SSE 4.6 mph - N/A   Clear
7:15 PM 91.4 °F 92.1 °F 62.6 °F 38% 29.94 in 10.0 mi SSE 5.8 mph - N/A   Clear
7:35 PM 89.6 °F 90.1 °F 62.6 °F 40% 29.94 in 10.0 mi SSE 6.9 mph - N/A   Clear
7:55 PM 89.6 °F 90.1 °F 62.6 °F 40% 29.95 in 10.0 mi SE 5.8 mph - N/A   Clear
8:15 PM 87.8 °F 89.4 °F 64.4 °F 46% 29.95 in 10.0 mi SSE 4.6 mph - N/A   Clear
8:35 PM 86.0 °F 86.6 °F 62.6 °F 45% 29.96 in 10.0 mi SSE 6.9 mph - N/A   Clear
8:55 PM 86.0 °F 86.6 °F 62.6 °F 45% 29.97 in 10.0 mi SSE 5.8 mph - N/A   Clear
9:15 PM 86.0 °F 86.6 °F 62.6 °F 45% 29.97 in 10.0 mi South 6.9 mph - N/A   Clear
9:35 PM 84.2 °F 85.0 °F 62.6 °F 48% 29.97 in 10.0 mi South 9.2 mph - N/A   Clear
9:55 PM 84.2 °F 85.0 °F 62.6 °F 48% 29.98 in 10.0 mi South 5.8 mph - N/A   Clear
10:15 PM 82.4 °F 83.4 °F 62.6 °F 51% 29.98 in 10.0 mi South 6.9 mph - N/A   Clear
10:35 PM 82.4 °F 83.4 °F 62.6 °F 51% 29.98 in 10.0 mi South 6.9 mph - N/A   Clear
10:55 PM 80.6 °F 81.8 °F 62.6 °F 54% 29.99 in 10.0 mi South 9.2 mph - N/A   Clear
11:35 PM 80.6 °F 81.8 °F 62.6 °F 54% 29.99 in 10.0 mi South 9.2 mph - N/A   Clear
11:55 PM 80.6 °F 81.8 °F 62.6 °F 54% 29.99 in 10.0 mi South 8.1 mph - N/A   Clear